CGMPW CYUL-CYQM

Flight info

Callsign CGMPW
Flight time 1h 7m
Altitude 45000
Route SUXET DCT NOVUN DCT ESRAM DCT RABIK Q951 PUXOP
Aircraft PC24/L-SBDGIRWY/LB2

Departure

Time 2026-05-04 23:55
Airport Montreal / Pierre Elliott Trudeau International Airport (CYUL)

Arrival

Time 2026-05-05 01:02
Airport Greater Moncton Roméo LeBlanc International Airport (CYQM)
Time Latitude Longitude Altitude Speed Heading
2026-05-04 23:40 45.46583 -73.75141 107 ft 0 kts 268°
2026-05-04 23:47 45.46581 -73.75146 108 ft 1 kts 236°
2026-05-04 23:48 45.46571 -73.75118 107 ft 9 kts 85°
2026-05-04 23:48 45.46639 -73.75004 108 ft 19 kts 47°
2026-05-04 23:48 45.46666 -73.74833 107 ft 18 kts 87°
2026-05-04 23:48 45.46671 -73.74659 108 ft 17 kts 86°
2026-05-04 23:49 45.46677 -73.74506 111 ft 14 kts 87°
2026-05-04 23:49 45.46681 -73.74363 112 ft 15 kts 86°
2026-05-04 23:49 45.46685 -73.74221 112 ft 14 kts 87°
2026-05-04 23:49 45.46684 -73.74095 114 ft 12 kts 98°
2026-05-04 23:50 45.46662 -73.73995 114 ft 10 kts 113°
2026-05-04 23:50 45.46639 -73.73943 115 ft 9 kts 128°
2026-05-04 23:50 45.46597 -73.73867 116 ft 13 kts 129°
2026-05-04 23:50 45.46549 -73.73754 117 ft 14 kts 86°
2026-05-04 23:51 45.46495 -73.73692 114 ft 15 kts 132°
2026-05-04 23:51 45.46533 -73.73541 112 ft 19 kts 45°
2026-05-04 23:51 45.46648 -73.73396 109 ft 23 kts 45°
2026-05-04 23:51 45.46768 -73.73233 109 ft 23 kts 43°
2026-05-04 23:52 45.46885 -73.73079 109 ft 23 kts 41°
2026-05-04 23:52 45.46995 -73.72939 114 ft 20 kts 43°
2026-05-04 23:52 45.47094 -73.72800 113 ft 20 kts 43°
2026-05-04 23:52 45.47199 -73.72671 112 ft 20 kts 43°
2026-05-04 23:53 45.47303 -73.72531 110 ft 20 kts 43°
2026-05-04 23:53 45.47403 -73.72395 109 ft 20 kts 42°
2026-05-04 23:53 45.47488 -73.72286 110 ft 11 kts 43°
2026-05-04 23:53 45.47509 -73.72200 109 ft 10 kts 123°
2026-05-04 23:54 45.47455 -73.72182 108 ft 0 kts 190°
2026-05-04 23:54 45.47450 -73.72184 108 ft 7 kts 192°
2026-05-04 23:54 45.47344 -73.72216 105 ft 23 kts 193°
2026-05-04 23:55 45.47157 -73.72328 108 ft 37 kts 219°
2026-05-04 23:55 45.46820 -73.72762 112 ft 106 kts 221°
2026-05-04 23:55 45.45266 -73.74785 1461 ft 173 kts 223°
2026-05-04 23:56 45.44330 -73.76038 2615 ft 189 kts 225°
2026-05-04 23:56 45.43326 -73.77376 3778 ft 212 kts 223°
2026-05-04 23:56 45.41830 -73.78167 4619 ft 255 kts 189°
2026-05-04 23:56 45.39970 -73.77624 5427 ft 298 kts 160°
2026-05-04 23:57 45.38317 -73.75568 6204 ft 329 kts 130°
2026-05-04 23:57 45.37464 -73.72833 6904 ft 286 kts 110°
2026-05-04 23:57 45.36931 -73.70041 7640 ft 301 kts 111°
2026-05-04 23:57 45.36185 -73.67173 8417 ft 317 kts 118°
2026-05-04 23:58 45.35215 -73.64274 9217 ft 333 kts 120°
2026-05-04 23:58 45.34228 -73.61221 9992 ft 345 kts 117°
2026-05-04 23:58 45.33282 -73.58029 10730 ft 353 kts 116°
2026-05-04 23:58 45.32317 -73.54817 11490 ft 360 kts 117°
2026-05-04 23:59 45.31294 -73.51527 12262 ft 367 kts 117°
2026-05-04 23:59 45.30255 -73.48170 13058 ft 373 kts 116°
2026-05-04 23:59 45.29211 -73.44772 13826 ft 377 kts 116°
2026-05-04 23:59 45.28156 -73.41347 14557 ft 380 kts 116°
2026-05-05 00:00 45.27087 -73.37887 15301 ft 386 kts 117°
2026-05-05 00:00 45.26367 -73.35566 15810 ft 389 kts 117°
2026-05-05 00:00 45.24897 -73.30819 16853 ft 396 kts 117°
2026-05-05 00:00 45.23775 -73.27204 17673 ft 402 kts 117°
2026-05-05 00:01 45.22655 -73.23596 18414 ft 407 kts 117°
2026-05-05 00:01 45.21528 -73.19887 19134 ft 412 kts 113°
2026-05-05 00:01 45.20810 -73.15932 19858 ft 417 kts 100°
2026-05-05 00:01 45.20605 -73.11809 20614 ft 420 kts 88°
2026-05-05 00:02 45.20724 -73.07681 21389 ft 420 kts 86°
2026-05-05 00:02 45.20854 -73.03541 22179 ft 419 kts 83°
2026-05-05 00:02 45.21406 -72.99504 22981 ft 415 kts 70°
2026-05-05 00:02 45.22430 -72.95715 23728 ft 409 kts 59°
2026-05-05 00:03 45.23798 -72.92207 24442 ft 404 kts 54°
2026-05-05 00:03 45.25180 -72.88734 25161 ft 402 kts 54°
2026-05-05 00:03 45.26531 -72.85324 25896 ft 400 kts 54°
2026-05-05 00:03 45.27867 -72.81873 26665 ft 399 kts 57°
2026-05-05 00:04 45.28842 -72.78167 27435 ft 402 kts 69°
2026-05-05 00:04 45.29358 -72.74260 28243 ft 404 kts 79°
2026-05-05 00:04 45.29524 -72.70287 29070 ft 399 kts 82°
2026-05-05 00:04 45.29677 -72.66369 29900 ft 394 kts 82°
2026-05-05 00:05 45.29830 -72.62519 30629 ft 388 kts 81°
2026-05-05 00:05 45.30025 -72.58737 31374 ft 379 kts 78°
2026-05-05 00:05 45.30234 -72.55041 32132 ft 371 kts 78°
2026-05-05 00:05 45.30420 -72.51416 32910 ft 363 kts 78°
2026-05-05 00:06 45.30611 -72.47890 33702 ft 353 kts 77°
2026-05-05 00:06 45.30801 -72.44501 34382 ft 343 kts 77°
2026-05-05 00:06 45.30984 -72.41178 35081 ft 332 kts 78°
2026-05-05 00:06 45.31157 -72.37966 35793 ft 320 kts 78°
2026-05-05 00:07 45.31325 -72.34868 36525 ft 308 kts 79°
2026-05-05 00:07 45.31485 -72.31895 37277 ft 295 kts 80°
2026-05-05 00:07 45.31637 -72.29055 38037 ft 281 kts 81°
2026-05-05 00:07 45.31782 -72.26360 38707 ft 266 kts 82°
2026-05-05 00:08 45.31927 -72.23691 38850 ft 276 kts 82°
2026-05-05 00:08 45.32076 -72.20934 38997 ft 283 kts 83°
2026-05-05 00:08 45.32221 -72.18110 39165 ft 290 kts 83°
2026-05-05 00:08 45.32370 -72.15257 39332 ft 296 kts 83°
2026-05-05 00:09 45.32524 -72.12305 39497 ft 303 kts 83°
2026-05-05 00:09 45.32681 -72.09289 39664 ft 309 kts 84°
2026-05-05 00:09 45.32839 -72.06204 39833 ft 316 kts 84°
2026-05-05 00:09 45.33000 -72.03061 40000 ft 322 kts 84°
2026-05-05 00:10 45.33163 -71.99862 40161 ft 328 kts 84°
2026-05-05 00:10 45.33329 -71.96585 40329 ft 334 kts 84°
2026-05-05 00:10 45.33497 -71.93263 40489 ft 340 kts 84°
2026-05-05 00:10 45.33666 -71.89876 40656 ft 346 kts 84°
2026-05-05 00:11 45.33843 -71.86442 40812 ft 351 kts 83°
2026-05-05 00:11 45.34201 -71.82987 40978 ft 355 kts 79°
2026-05-05 00:11 45.34593 -71.79547 41141 ft 360 kts 79°
2026-05-05 00:11 45.34981 -71.76001 41305 ft 365 kts 80°
2026-05-05 00:12 45.35367 -71.72414 41468 ft 369 kts 80°
2026-05-05 00:12 45.35760 -71.68779 41632 ft 374 kts 80°
2026-05-05 00:12 45.36160 -71.65096 41797 ft 378 kts 80°
2026-05-05 00:12 45.36564 -71.61371 41961 ft 382 kts 80°
2026-05-05 00:13 45.36967 -71.57619 42127 ft 386 kts 80°
2026-05-05 00:13 45.37374 -71.53821 42290 ft 389 kts 81°
2026-05-05 00:13 45.37781 -71.50004 42460 ft 393 kts 81°
2026-05-05 00:13 45.38193 -71.46151 42618 ft 396 kts 81°
2026-05-05 00:14 45.38605 -71.42262 42788 ft 399 kts 81°
2026-05-05 00:14 45.39020 -71.38346 42959 ft 402 kts 81°
2026-05-05 00:14 45.39431 -71.34452 43127 ft 404 kts 81°
2026-05-05 00:14 45.39850 -71.30468 43299 ft 407 kts 81°
2026-05-05 00:15 45.40269 -71.26471 43468 ft 409 kts 81°
2026-05-05 00:15 45.40688 -71.22455 43652 ft 411 kts 81°
2026-05-05 00:15 45.41107 -71.18424 43826 ft 413 kts 81°
2026-05-05 00:15 45.41527 -71.14375 43997 ft 415 kts 81°
2026-05-05 00:16 45.41949 -71.10300 44169 ft 416 kts 82°
2026-05-05 00:16 45.42368 -71.06217 44342 ft 417 kts 82°
2026-05-05 00:16 45.42774 -71.02117 44505 ft 418 kts 84°
2026-05-05 00:16 45.42985 -70.97990 44668 ft 418 kts 86°
2026-05-05 00:17 45.43165 -70.93902 44801 ft 419 kts 86°
2026-05-05 00:17 45.43562 -70.85519 44810 ft 428 kts 86°
2026-05-05 00:18 45.43953 -70.76958 44812 ft 437 kts 86°
2026-05-05 00:18 45.44350 -70.68260 44811 ft 444 kts 86°
2026-05-05 00:19 45.45053 -70.59483 44801 ft 448 kts 82°
2026-05-05 00:19 45.45938 -70.50770 44808 ft 445 kts 82°
2026-05-05 00:20 45.46799 -70.42075 44802 ft 441 kts 82°
2026-05-05 00:20 45.47654 -70.33461 44797 ft 438 kts 82°
2026-05-05 00:21 45.48496 -70.24878 44801 ft 438 kts 83°
2026-05-05 00:21 45.49335 -70.16257 44799 ft 440 kts 83°
2026-05-05 00:22 45.50171 -70.07602 44797 ft 442 kts 83°
2026-05-05 00:22 45.50999 -69.98955 44802 ft 443 kts 83°
2026-05-05 00:23 45.51829 -69.90223 44803 ft 444 kts 83°
2026-05-05 00:23 45.52651 -69.81506 44803 ft 442 kts 83°
2026-05-05 00:24 45.53463 -69.72810 44798 ft 440 kts 83°
2026-05-05 00:24 45.54259 -69.64215 44810 ft 439 kts 83°
2026-05-05 00:25 45.55051 -69.55600 44806 ft 437 kts 83°
2026-05-05 00:25 45.55836 -69.46991 44804 ft 437 kts 83°
2026-05-05 00:26 45.56614 -69.38378 44806 ft 438 kts 83°
2026-05-05 00:26 45.57385 -69.29783 44811 ft 440 kts 83°
2026-05-05 00:27 45.58155 -69.21100 44810 ft 441 kts 84°
2026-05-05 00:27 45.58920 -69.12388 44813 ft 442 kts 84°
2026-05-05 00:28 45.59683 -69.03657 44817 ft 444 kts 84°
2026-05-05 00:28 45.60440 -68.94888 44819 ft 445 kts 84°
2026-05-05 00:29 45.61187 -68.86171 44819 ft 444 kts 84°
2026-05-05 00:29 45.61927 -68.77452 44808 ft 440 kts 84°
2026-05-05 00:30 45.62655 -68.68795 44811 ft 437 kts 84°
2026-05-05 00:30 45.63375 -68.60132 44810 ft 439 kts 84°
2026-05-05 00:31 45.64088 -68.51488 44672 ft 444 kts 84°
2026-05-05 00:31 45.64452 -68.47075 44357 ft 449 kts 84°
2026-05-05 00:31 45.64814 -68.42632 44036 ft 450 kts 84°
2026-05-05 00:31 45.65174 -68.38177 43696 ft 452 kts 84°
2026-05-05 00:32 45.65536 -68.33700 43371 ft 453 kts 84°
2026-05-05 00:32 45.65895 -68.29233 43059 ft 452 kts 84°
2026-05-05 00:32 45.66252 -68.24772 42746 ft 452 kts 84°
2026-05-05 00:32 45.66607 -68.20305 42437 ft 452 kts 84°
2026-05-05 00:33 45.66960 -68.15842 42129 ft 452 kts 84°
2026-05-05 00:33 45.67311 -68.11381 41848 ft 453 kts 84°
2026-05-05 00:33 45.67662 -68.06898 41554 ft 454 kts 84°
2026-05-05 00:33 45.68014 -68.02393 41259 ft 456 kts 84°
2026-05-05 00:34 45.68363 -67.97880 40975 ft 457 kts 84°
2026-05-05 00:34 45.68712 -67.93366 40682 ft 457 kts 84°
2026-05-05 00:34 45.69054 -67.88902 40406 ft 457 kts 84°
2026-05-05 00:34 45.69405 -67.84316 40122 ft 457 kts 84°
2026-05-05 00:35 45.69640 -67.81322 39862 ft 459 kts 82°
2026-05-05 00:35 45.70594 -67.75437 39258 ft 459 kts 73°
2026-05-05 00:35 45.71453 -67.71036 38828 ft 459 kts 73°
2026-05-05 00:35 45.72297 -67.66633 38381 ft 458 kts 73°
2026-05-05 00:36 45.73103 -67.62232 37838 ft 457 kts 73°
2026-05-05 00:36 45.73637 -67.59313 37485 ft 456 kts 73°
2026-05-05 00:36 45.74458 -67.54912 36969 ft 457 kts 72°
2026-05-05 00:36 45.75285 -67.50508 36489 ft 459 kts 72°
2026-05-05 00:37 45.76107 -67.46070 35997 ft 460 kts 72°
2026-05-05 00:37 45.76922 -67.41632 35505 ft 461 kts 72°
2026-05-05 00:37 45.77732 -67.37233 35042 ft 463 kts 71°
2026-05-05 00:37 45.78557 -67.32762 34577 ft 464 kts 71°
2026-05-05 00:38 45.79379 -67.28277 34118 ft 464 kts 71°
2026-05-05 00:38 45.80198 -67.23801 33636 ft 464 kts 70°
2026-05-05 00:38 45.81015 -67.19328 33086 ft 464 kts 70°
2026-05-05 00:38 45.81831 -67.14842 32404 ft 466 kts 69°
2026-05-05 00:39 45.82639 -67.10371 31197 ft 459 kts 68°
2026-05-05 00:39 45.83441 -67.05934 29490 ft 460 kts 65°
2026-05-05 00:39 45.84249 -67.01500 27899 ft 455 kts 65°
2026-05-05 00:39 45.85031 -66.97136 26472 ft 448 kts 65°
2026-05-05 00:40 45.85803 -66.92835 25066 ft 444 kts 65°
2026-05-05 00:40 45.86580 -66.88546 23662 ft 443 kts 66°
2026-05-05 00:40 45.87332 -66.84336 22300 ft 437 kts 66°
2026-05-05 00:40 45.88079 -66.80139 21010 ft 429 kts 67°
2026-05-05 00:41 45.88811 -66.76013 19767 ft 420 kts 68°
2026-05-05 00:41 45.89532 -66.71981 18577 ft 412 kts 69°
2026-05-05 00:41 45.90223 -66.68082 17357 ft 404 kts 69°
2026-05-05 00:41 45.90914 -66.64201 16143 ft 395 kts 70°
2026-05-05 00:42 45.91580 -66.60413 14986 ft 386 kts 71°
2026-05-05 00:42 45.92233 -66.56713 13867 ft 377 kts 71°
2026-05-05 00:42 45.92861 -66.53141 12732 ft 369 kts 71°
2026-05-05 00:42 45.93486 -66.49600 11563 ft 362 kts 72°
2026-05-05 00:43 45.94094 -66.46124 10432 ft 356 kts 72°
2026-05-05 00:43 45.94692 -66.42709 9310 ft 350 kts 73°
2026-05-05 00:43 45.95271 -66.39341 8212 ft 343 kts 73°
2026-05-05 00:43 45.95826 -66.36086 7594 ft 329 kts 73°
2026-05-05 00:44 45.96375 -66.32896 7034 ft 329 kts 73°
2026-05-05 00:44 45.96923 -66.29703 6487 ft 329 kts 73°
2026-05-05 00:44 45.97467 -66.26523 6076 ft 323 kts 74°
2026-05-05 00:44 45.97993 -66.23425 6042 ft 321 kts 74°
2026-05-05 00:45 45.98533 -66.20270 6044 ft 325 kts 74°
2026-05-05 00:45 45.99068 -66.17116 6050 ft 325 kts 74°
2026-05-05 00:45 45.99605 -66.13952 6042 ft 326 kts 74°
2026-05-05 00:45 46.00141 -66.10778 6043 ft 327 kts 74°
2026-05-05 00:46 46.00681 -66.07596 6047 ft 327 kts 74°
2026-05-05 00:46 46.01218 -66.04406 6040 ft 328 kts 74°
2026-05-05 00:46 46.01750 -66.01252 6038 ft 328 kts 74°
2026-05-05 00:46 46.02285 -65.98065 6032 ft 327 kts 74°
2026-05-05 00:47 46.02818 -65.94885 6032 ft 326 kts 74°
2026-05-05 00:47 46.03348 -65.91712 6037 ft 326 kts 74°
2026-05-05 00:47 46.03888 -65.88505 5928 ft 329 kts 74°
2026-05-05 00:47 46.04421 -65.85303 5837 ft 327 kts 75°
2026-05-05 00:48 46.04948 -65.82136 5729 ft 324 kts 74°
2026-05-05 00:48 46.05465 -65.79027 5624 ft 323 kts 75°
2026-05-05 00:48 46.05987 -65.75880 5518 ft 323 kts 75°
2026-05-05 00:48 46.06512 -65.72722 5388 ft 324 kts 75°
2026-05-05 00:49 46.07031 -65.69569 5204 ft 322 kts 75°
2026-05-05 00:49 46.07547 -65.66447 5029 ft 320 kts 75°
2026-05-05 00:49 46.08058 -65.63345 5023 ft 318 kts 75°
2026-05-05 00:49 46.08571 -65.60237 5019 ft 319 kts 75°
2026-05-05 00:50 46.09080 -65.57123 5024 ft 320 kts 75°
2026-05-05 00:50 46.09597 -65.53979 5025 ft 321 kts 75°
2026-05-05 00:50 46.10112 -65.50844 5021 ft 322 kts 75°
2026-05-05 00:50 46.10620 -65.47702 5023 ft 321 kts 75°
2026-05-05 00:51 46.11123 -65.44610 5016 ft 321 kts 75°
2026-05-05 00:51 46.11634 -65.41477 5010 ft 320 kts 75°
2026-05-05 00:51 46.12144 -65.38333 5006 ft 323 kts 75°
2026-05-05 00:51 46.12657 -65.35174 5007 ft 324 kts 75°
2026-05-05 00:52 46.13168 -65.31999 5009 ft 324 kts 75°
2026-05-05 00:52 46.13679 -65.28838 5009 ft 323 kts 75°
2026-05-05 00:52 46.14189 -65.25675 5008 ft 323 kts 75°
2026-05-05 00:52 46.14692 -65.22554 5007 ft 323 kts 75°
2026-05-05 00:53 46.15190 -65.19433 4994 ft 311 kts 75°
2026-05-05 00:53 46.15662 -65.16490 4995 ft 291 kts 75°
2026-05-05 00:53 46.16099 -65.13758 4991 ft 267 kts 75°
2026-05-05 00:53 46.16504 -65.11234 4994 ft 252 kts 75°
2026-05-05 00:54 46.16895 -65.08793 4998 ft 247 kts 75°
2026-05-05 00:54 46.17280 -65.06375 4997 ft 248 kts 75°
2026-05-05 00:54 46.17668 -65.03941 4998 ft 250 kts 75°
2026-05-05 00:54 46.18056 -65.01490 5001 ft 251 kts 75°
2026-05-05 00:55 46.18441 -64.99066 5004 ft 251 kts 75°
2026-05-05 00:55 46.18829 -64.96607 5003 ft 251 kts 75°
2026-05-05 00:55 46.19219 -64.94143 5004 ft 251 kts 75°
2026-05-05 00:55 46.19606 -64.91686 5005 ft 251 kts 75°
2026-05-05 00:56 46.19995 -64.89228 5002 ft 251 kts 75°
2026-05-05 00:56 46.20380 -64.86772 5002 ft 251 kts 75°
2026-05-05 00:56 46.20765 -64.84319 4998 ft 250 kts 75°
2026-05-05 00:56 46.21149 -64.81878 5001 ft 249 kts 75°
2026-05-05 00:57 46.21530 -64.79440 4976 ft 250 kts 75°
2026-05-05 00:57 46.21918 -64.76964 4635 ft 249 kts 75°
2026-05-05 00:57 46.22289 -64.74569 4300 ft 240 kts 75°
2026-05-05 00:57 46.22651 -64.72253 3978 ft 233 kts 74°
2026-05-05 00:58 46.23002 -64.69996 3671 ft 227 kts 74°
2026-05-05 00:58 46.23346 -64.67796 3374 ft 222 kts 74°
2026-05-05 00:58 46.23526 -64.65616 3085 ft 221 kts 94°
2026-05-05 00:58 46.23146 -64.63495 2803 ft 217 kts 117°
2026-05-05 00:59 46.22298 -64.61745 2520 ft 210 kts 141°
2026-05-05 00:59 46.21135 -64.60567 2241 ft 199 kts 163°
2026-05-05 00:59 46.19845 -64.60032 1971 ft 187 kts 183°
2026-05-05 00:59 46.18587 -64.60095 1727 ft 176 kts 200°
2026-05-05 01:00 46.17491 -64.60630 1493 ft 155 kts 216°
2026-05-05 01:00 46.16669 -64.61409 1291 ft 125 kts 229°
2026-05-05 01:00 46.16114 -64.62146 1098 ft 99 kts 230°
2026-05-05 01:00 46.15622 -64.62795 922 ft 96 kts 230°
2026-05-05 01:01 46.15136 -64.63438 819 ft 93 kts 227°
2026-05-05 01:01 46.14643 -64.64092 767 ft 100 kts 227°
2026-05-05 01:01 46.14135 -64.64761 630 ft 96 kts 227°
2026-05-05 01:01 46.13654 -64.65400 488 ft 93 kts 227°
2026-05-05 01:02 46.13174 -64.66022 352 ft 92 kts 227°
2026-05-05 01:02 46.12686 -64.66675 259 ft 99 kts 226°
2026-05-05 01:02 46.12176 -64.67319 193 ft 88 kts 226°
2026-05-05 01:02 46.11938 -64.67646 195 ft 16 kts 224°
2026-05-05 01:03 46.11853 -64.67769 194 ft 19 kts 225°
2026-05-05 01:03 46.11737 -64.67936 193 ft 27 kts 224°
2026-05-05 01:03 46.11617 -64.68093 195 ft 20 kts 221°
2026-05-05 01:03 46.11509 -64.68236 199 ft 24 kts 223°
2026-05-05 01:04 46.11391 -64.68394 204 ft 20 kts 222°
2026-05-05 01:04 46.11407 -64.68679 196 ft 15 kts 309°
2026-05-05 01:04 46.11438 -64.68794 193 ft 9 kts 278°
2026-05-05 01:05 46.11459 -64.68870 203 ft 11 kts 316°
2026-05-05 01:05 46.11463 -64.68875 199 ft 0 kts 316°